Private Wetterstation Sandau
Wetterdaten: Samstag, 16.06.2012
Datum Zeit Temp. A. Feuchte A. Luftdruck Regen Wind Richtung Richtung Taupunkt Windchill
16.06.2012 00:01 17,5 C 71 % 1016,0 hPa 0,0 l/m 1,1 km/h (1 Bft) S-SO 157 12,2 C 17,5 C
16.06.2012 00:06 17,4 C 71 % 1016,1 hPa 0,0 l/m 0,0 km/h (0 Bft) S-SW 202 12,1 C 17,4 C
16.06.2012 00:11 17,4 C 72 % 1016,1 hPa 0,0 l/m 0,0 km/h (0 Bft) SW 225 12,3 C 17,4 C
16.06.2012 00:16 17,4 C 72 % 1016,1 hPa 0,0 l/m 0,0 km/h (0 Bft) S 180 12,3 C 17,4 C
16.06.2012 00:21 17,4 C 72 % 1016,1 hPa 0,0 l/m 2,2 km/h (1 Bft) W-SW 247 12,3 C 17,4 C
16.06.2012 00:26 17,4 C 72 % 1016,3 hPa 0,0 l/m 4,0 km/h (1 Bft) W-SW 247 12,3 C 17,4 C
16.06.2012 00:31 17,4 C 73 % 1016,1 hPa 0,0 l/m 3,2 km/h (1 Bft) W-SW 247 12,5 C 17,4 C
16.06.2012 00:36 17,4 C 73 % 1016,0 hPa 0,0 l/m 2,5 km/h (1 Bft) W-SW 247 12,5 C 17,4 C
16.06.2012 00:41 17,5 C 73 % 1015,9 hPa 0,0 l/m 0,0 km/h (0 Bft) S-SW 202 12,6 C 17,5 C
16.06.2012 00:46 17,5 C 73 % 1015,9 hPa 0,0 l/m 2,2 km/h (1 Bft) S-SW 202 12,6 C 17,5 C
16.06.2012 00:51 17,5 C 73 % 1016,0 hPa 0,0 l/m 2,2 km/h (1 Bft) S 180 12,6 C 17,5 C
16.06.2012 00:56 17,5 C 73 % 1015,9 hPa 0,0 l/m 0,0 km/h (0 Bft) S 180 12,6 C 17,5 C
16.06.2012 01:01 17,5 C 73 % 1016,0 hPa 0,0 l/m 0,0 km/h (0 Bft) S 180 12,6 C 17,5 C
16.06.2012 01:06 17,5 C 73 % 1016,0 hPa 0,0 l/m 2,2 km/h (1 Bft) S-SW 202 12,6 C 17,5 C
16.06.2012 01:11 17,5 C 73 % 1016,0 hPa 0,0 l/m 0,0 km/h (0 Bft) S-SO 157 12,6 C 17,5 C
16.06.2012 01:16 17,4 C 73 % 1016,0 hPa 0,0 l/m 2,2 km/h (1 Bft) SW 225 12,5 C 17,4 C
16.06.2012 01:21 17,4 C 73 % 1016,0 hPa 0,0 l/m 1,4 km/h (1 Bft) S-SO 157 12,5 C 17,4 C
16.06.2012 01:26 17,4 C 73 % 1016,0 hPa 0,0 l/m 1,1 km/h (1 Bft) S 180 12,5 C 17,4 C
16.06.2012 01:31 17,3 C 74 % 1016,1 hPa 0,0 l/m 0,0 km/h (0 Bft) S-SO 157 12,6 C 17,3 C
16.06.2012 01:36 17,3 C 74 % 1016,0 hPa 0,0 l/m 1,4 km/h (1 Bft) S-SO 157 12,6 C 17,3 C
16.06.2012 01:41 17,3 C 74 % 1016,0 hPa 0,0 l/m 1,8 km/h (1 Bft) SO 135 12,6 C 17,3 C
16.06.2012 01:46 17,3 C 74 % 1016,0 hPa 0,0 l/m 1,8 km/h (1 Bft) S-SO 157 12,6 C 17,3 C
16.06.2012 01:51 17,2 C 74 % 1015,8 hPa 0,0 l/m 4,0 km/h (1 Bft) S 180 12,5 C 17,2 C
16.06.2012 01:56 17,2 C 75 % 1015,9 hPa 0,0 l/m 2,5 km/h (1 Bft) S 180 12,7 C 17,2 C
16.06.2012 02:01 17,2 C 75 % 1015,9 hPa 0,0 l/m 3,2 km/h (1 Bft) S-SW 202 12,7 C 17,2 C
16.06.2012 02:06 17,2 C 75 % 1015,9 hPa 0,0 l/m 2,9 km/h (1 Bft) S-SW 202 12,7 C 17,2 C
16.06.2012 02:11 17,2 C 75 % 1015,9 hPa 0,0 l/m 1,8 km/h (1 Bft) S-SO 157 12,7 C 17,2 C
16.06.2012 02:16 17,2 C 75 % 1015,9 hPa 0,0 l/m 3,2 km/h (1 Bft) SO 135 12,7 C 17,2 C
16.06.2012 02:21 17,2 C 75 % 1015,7 hPa 0,0 l/m 4,0 km/h (1 Bft) S-SO 157 12,7 C 17,2 C
16.06.2012 02:26 17,1 C 75 % 1015,8 hPa 0,0 l/m 0,0 km/h (0 Bft) S-SO 157 12,6 C 17,1 C
16.06.2012 02:31 17,1 C 76 % 1015,8 hPa 0,0 l/m 2,5 km/h (1 Bft) SO 135 12,8 C 17,1 C
16.06.2012 02:36 17,1 C 76 % 1015,6 hPa 0,0 l/m 2,5 km/h (1 Bft) S-SO 157 12,8 C 17,1 C
16.06.2012 02:41 17,1 C 76 % 1015,6 hPa 0,0 l/m 1,4 km/h (1 Bft) S-SO 157 12,8 C 17,1 C
16.06.2012 02:46 17,1 C 76 % 1015,4 hPa 0,0 l/m 0,0 km/h (0 Bft) S-SO 157 12,8 C 17,1 C
16.06.2012 02:51 17,1 C 76 % 1015,4 hPa 0,0 l/m 0,0 km/h (0 Bft) S-SO 157 12,8 C 17,1 C
16.06.2012 02:56 17,1 C 76 % 1015,5 hPa 0,0 l/m 1,4 km/h (1 Bft) S-SO 157 12,8 C 17,1 C
16.06.2012 03:01 17,0 C 76 % 1015,5 hPa 0,0 l/m 3,6 km/h (1 Bft) S 180 12,7 C 17,0 C
16.06.2012 03:06 17,0 C 76 % 1015,6 hPa 0,0 l/m 2,9 km/h (1 Bft) S-SO 157 12,7 C 17,0 C
16.06.2012 03:11 16,9 C 76 % 1015,6 hPa 0,0 l/m 1,8 km/h (1 Bft) S-SO 157 12,6 C 16,9 C
16.06.2012 03:16 16,9 C 77 % 1015,4 hPa 0,0 l/m 2,2 km/h (1 Bft) S-SO 157 12,8 C 16,9 C
16.06.2012 03:21 16,9 C 77 % 1015,5 hPa 0,0 l/m 1,8 km/h (1 Bft) S-SO 157 12,8 C 16,9 C
16.06.2012 03:26 16,9 C 77 % 1015,4 hPa 0,0 l/m 0,0 km/h (0 Bft) S-SO 157 12,8 C 16,9 C
16.06.2012 03:31 16,9 C 77 % 1015,4 hPa 0,0 l/m 0,0 km/h (0 Bft) S-SO 157 12,8 C 16,9 C
16.06.2012 03:36 16,9 C 77 % 1015,3 hPa 0,0 l/m 0,0 km/h (0 Bft) SO 135 12,8 C 16,9 C
16.06.2012 03:41 16,9 C 77 % 1015,6 hPa 0,0 l/m 0,0 km/h (0 Bft) S-SO 157 12,8 C 16,9 C
16.06.2012 03:46 16,9 C 77 % 1015,5 hPa 0,0 l/m 0,0 km/h (0 Bft) SO 135 12,8 C 16,9 C
16.06.2012 03:51 16,9 C 77 % 1015,4 hPa 0,0 l/m 0,0 km/h (0 Bft) SO 135 12,8 C 16,9 C
16.06.2012 03:56 16,8 C 77 % 1015,4 hPa 0,0 l/m 0,0 km/h (0 Bft) S-SO 157 12,7 C 16,8 C
16.06.2012 04:01 16,8 C 77 % 1015,6 hPa 0,0 l/m 0,0 km/h (0 Bft) W-NW 292 12,7 C 16,8 C
16.06.2012 04:06 16,7 C 77 % 1015,6 hPa 0,0 l/m 0,0 km/h (0 Bft) W 270 12,6 C 16,7 C
16.06.2012 04:11 16,6 C 78 % 1015,6 hPa 0,0 l/m 2,2 km/h (1 Bft) S-SO 157 12,7 C 16,6 C
16.06.2012 04:16 16,6 C 78 % 1015,5 hPa 0,0 l/m 3,2 km/h (1 Bft) S 180 12,7 C 16,6 C
16.06.2012 04:21 16,7 C 79 % 1015,5 hPa 0,0 l/m 2,9 km/h (1 Bft) SO 135 13,0 C 16,7 C
16.06.2012 04:26 16,8 C 79 % 1015,5 hPa 0,0 l/m 0,0 km/h (0 Bft) SW 225 13,1 C 16,8 C
16.06.2012 04:31 16,7 C 79 % 1015,5 hPa 0,0 l/m 0,0 km/h (0 Bft) W-NW 292 13,0 C 16,7 C
16.06.2012 04:36 16,6 C 79 % 1015,5 hPa 0,0 l/m 0,0 km/h (0 Bft) SW 225 12,9 C 16,6 C
16.06.2012 04:41 16,6 C 80 % 1015,6 hPa 0,0 l/m 0,0 km/h (0 Bft) S 180 13,1 C 16,6 C
16.06.2012 04:46 16,6 C 80 % 1015,3 hPa 0,0 l/m 1,1 km/h (1 Bft) S-SO 157 13,1 C 16,6 C
16.06.2012 04:51 16,6 C 80 % 1015,4 hPa 0,0 l/m 2,5 km/h (1 Bft) S 180 13,1 C 16,6 C
16.06.2012 04:56 16,6 C 80 % 1015,6 hPa 0,0 l/m 3,2 km/h (1 Bft) S-SO 157 13,1 C 16,6 C
16.06.2012 05:01 16,6 C 80 % 1015,6 hPa 0,0 l/m 3,2 km/h (1 Bft) S 180 13,1 C 16,6 C
16.06.2012 05:06 16,6 C 80 % 1015,4 hPa 0,0 l/m 4,3 km/h (1 Bft) SO 135 13,1 C 16,6 C
16.06.2012 05:11 16,6 C 80 % 1015,4 hPa 0,0 l/m 4,0 km/h (1 Bft) S-SO 157 13,1 C 16,6 C
16.06.2012 05:16 16,5 C 80 % 1015,5 hPa 0,0 l/m 4,0 km/h (1 Bft) S 180 13,0 C 16,5 C
16.06.2012 05:21 16,5 C 80 % 1015,5 hPa 0,0 l/m 3,6 km/h (1 Bft) S-SO 157 13,0 C 16,5 C
16.06.2012 05:26 16,5 C 80 % 1015,5 hPa 0,0 l/m 1,8 km/h (1 Bft) S-SO 157 13,0 C 16,5 C
16.06.2012 05:31 16,4 C 81 % 1015,5 hPa 0,0 l/m 0,0 km/h (0 Bft) S 180 13,1 C 16,4 C
16.06.2012 05:36 16,5 C 81 % 1015,5 hPa 0,0 l/m 1,1 km/h (1 Bft) S-SO 157 13,2 C 16,5 C
16.06.2012 05:41 16,5 C 81 % 1015,4 hPa 0,0 l/m 1,8 km/h (1 Bft) SO 135 13,2 C 16,5 C
16.06.2012 05:46 16,5 C 81 % 1015,3 hPa 0,0 l/m 2,9 km/h (1 Bft) SO 135 13,2 C 16,5 C
16.06.2012 05:51 16,5 C 81 % 1015,5 hPa 0,0 l/m 0,0 km/h (0 Bft) S 180 13,2 C 16,5 C
16.06.2012 05:56 16,5 C 81 % 1015,6 hPa 0,0 l/m 0,0 km/h (0 Bft) S-SO 157 13,2 C 16,5 C
16.06.2012 06:01 16,5 C 81 % 1015,5 hPa 0,0 l/m 1,4 km/h (1 Bft) S-SO 157 13,2 C 16,5 C
16.06.2012 06:06 16,6 C 81 % 1015,4 hPa 0,0 l/m 3,2 km/h (1 Bft) S-SO 157 13,3 C 16,6 C
16.06.2012 06:11 16,6 C 81 % 1015,6 hPa 0,0 l/m 3,2 km/h (1 Bft) S-SW 202 13,3 C 16,6 C
16.06.2012 06:16 16,6 C 81 % 1015,7 hPa 0,0 l/m 4,0 km/h (1 Bft) S-SW 202 13,3 C 16,6 C
16.06.2012 06:21 16,6 C 81 % 1015,7 hPa 0,0 l/m 1,4 km/h (1 Bft) S 180 13,3 C 16,6 C
16.06.2012 06:26 16,7 C 81 % 1015,7 hPa 0,0 l/m 0,0 km/h (0 Bft) S 180 13,4 C 16,7 C
16.06.2012 06:31 16,7 C 81 % 1015,8 hPa 0,0 l/m 1,8 km/h (1 Bft) W-SW 247 13,4 C 16,7 C
16.06.2012 06:36 16,8 C 81 % 1015,8 hPa 0,0 l/m 0,0 km/h (0 Bft) W 270 13,5 C 16,8 C
16.06.2012 06:41 16,8 C 81 % 1015,8 hPa 0,0 l/m 0,0 km/h (0 Bft) NW 315 13,5 C 16,8 C
16.06.2012 06:46 16,8 C 82 % 1016,0 hPa 0,0 l/m 0,0 km/h (0 Bft) W 270 13,7 C 16,8 C
16.06.2012 06:51 16,8 C 82 % 1016,0 hPa 0,0 l/m 4,3 km/h (1 Bft) S-SW 202 13,7 C 16,8 C
16.06.2012 06:56 16,9 C 82 % 1015,9 hPa 0,0 l/m 5,4 km/h (1 Bft) SW 225 13,8 C 16,9 C
16.06.2012 07:01 16,9 C 82 % 1015,9 hPa 0,0 l/m 3,6 km/h (1 Bft) S-SO 157 13,8 C 16,9 C
16.06.2012 07:06 16,9 C 82 % 1015,8 hPa 0,0 l/m 3,2 km/h (1 Bft) SO 135 13,8 C 16,9 C
16.06.2012 07:11 16,9 C 82 % 1015,7 hPa 0,0 l/m 4,3 km/h (1 Bft) S 180 13,8 C 16,9 C
16.06.2012 07:16 16,9 C 83 % 1015,6 hPa 0,0 l/m 1,4 km/h (1 Bft) SO 135 14,0 C 16,9 C
16.06.2012 07:21 16,9 C 83 % 1015,6 hPa 0,0 l/m 2,5 km/h (1 Bft) SO 135 14,0 C 16,9 C
16.06.2012 07:26 16,9 C 83 % 1015,6 hPa 0,0 l/m 1,4 km/h (1 Bft) S-SO 157 14,0 C 16,9 C
16.06.2012 07:31 16,9 C 83 % 1015,7 hPa 0,0 l/m 3,2 km/h (1 Bft) S-SO 157 14,0 C 16,9 C
16.06.2012 07:36 17,0 C 83 % 1015,7 hPa 0,5 l/m 0,0 km/h (0 Bft) S 180 14,1 C 17,0 C
16.06.2012 07:41 17,0 C 83 % 1015,8 hPa 0,0 l/m 0,0 km/h (0 Bft) S-SO 157 14,1 C 17,0 C
16.06.2012 07:46 17,1 C 83 % 1015,9 hPa 0,0 l/m 1,4 km/h (1 Bft) S-SO 157 14,2 C 17,1 C
16.06.2012 07:51 17,1 C 83 % 1015,8 hPa 0,0 l/m 2,2 km/h (1 Bft) SO 135 14,2 C 17,1 C
16.06.2012 07:56 17,3 C 83 % 1015,9 hPa 0,0 l/m 1,8 km/h (1 Bft) S 180 14,4 C 17,3 C
16.06.2012 08:01 17,4 C 83 % 1015,9 hPa 0,0 l/m 3,2 km/h (1 Bft) SO 135 14,5 C 17,4 C
16.06.2012 08:06 17,6 C 84 % 1015,9 hPa 0,0 l/m 6,1 km/h (2 Bft) S-SO 157 14,9 C 17,6 C
16.06.2012 08:11 17,8 C 84 % 1015,7 hPa 0,0 l/m 7,2 km/h (2 Bft) S-SO 157 15,1 C 17,8 C
16.06.2012 08:16 17,9 C 83 % 1015,8 hPa 0,0 l/m 6,1 km/h (2 Bft) S-SO 157 15,0 C 17,9 C
16.06.2012 08:21 17,9 C 83 % 1015,6 hPa 0,0 l/m 4,3 km/h (1 Bft) S-SO 157 15,0 C 17,9 C
16.06.2012 08:26 18,1 C 83 % 1015,6 hPa 0,0 l/m 2,2 km/h (1 Bft) SO 135 15,2 C 18,1 C
16.06.2012 08:31 18,2 C 83 % 1015,7 hPa 0,0 l/m 2,2 km/h (1 Bft) S-SO 157 15,3 C 18,2 C
16.06.2012 08:36 18,3 C 82 % 1015,8 hPa 0,0 l/m 5,0 km/h (1 Bft) S 180 15,2 C 18,3 C
16.06.2012 08:41 18,3 C 82 % 1015,7 hPa 0,0 l/m 0,0 km/h (0 Bft) SO 135 15,2 C 18,3 C
16.06.2012 08:46 18,4 C 82 % 1015,7 hPa 0,0 l/m 4,0 km/h (1 Bft) SO 135 15,3 C 18,4 C
16.06.2012 08:51 18,5 C 82 % 1015,6 hPa 0,0 l/m 4,0 km/h (1 Bft) S 180 15,4 C 18,5 C
16.06.2012 08:56 18,6 C 82 % 1015,6 hPa 0,0 l/m 5,0 km/h (1 Bft) S-SO 157 15,5 C 18,6 C
16.06.2012 09:01 18,9 C 82 % 1015,4 hPa 0,0 l/m 5,0 km/h (1 Bft) S 180 15,8 C 18,9 C
16.06.2012 09:06 18,9 C 81 % 1015,4 hPa 0,0 l/m 7,6 km/h (2 Bft) S-SW 202 15,6 C 18,9 C
16.06.2012 09:11 19,0 C 81 % 1015,4 hPa 0,0 l/m 9,7 km/h (2 Bft) S-SO 157 15,7 C 19,0 C
16.06.2012 09:16 19,1 C 80 % 1015,4 hPa 0,0 l/m 3,6 km/h (1 Bft) S 180 15,6 C 19,1 C
16.06.2012 09:21 19,1 C 80 % 1015,4 hPa 0,0 l/m 8,3 km/h (2 Bft) S-SO 157 15,6 C 19,1 C
16.06.2012 09:26 19,0 C 80 % 1015,6 hPa 0,0 l/m 8,3 km/h (2 Bft) S 180 15,5 C 19,0 C
16.06.2012 09:31 19,0 C 80 % 1015,3 hPa 0,0 l/m 3,6 km/h (1 Bft) S-SO 157 15,5 C 19,0 C
16.06.2012 09:36 19,1 C 80 % 1015,3 hPa 0,0 l/m 0,0 km/h (0 Bft) S-SO 157 15,6 C 19,1 C
16.06.2012 09:41 19,2 C 81 % 1015,2 hPa 0,0 l/m 2,5 km/h (1 Bft) O-SO 112 15,9 C 19,2 C
16.06.2012 09:46 19,3 C 81 % 1015,1 hPa 0,0 l/m 2,9 km/h (1 Bft) S-SW 202 16,0 C 19,3 C
16.06.2012 09:51 19,3 C 80 % 1015,0 hPa 0,0 l/m 4,0 km/h (1 Bft) S-SW 202 15,8 C 19,3 C
16.06.2012 09:56 19,3 C 80 % 1014,9 hPa 0,0 l/m 1,1 km/h (1 Bft) S-SO 157 15,8 C 19,3 C
16.06.2012 10:01 19,4 C 80 % 1014,9 hPa 0,0 l/m 3,2 km/h (1 Bft) S-SO 157 15,9 C 19,4 C
16.06.2012 10:06 19,4 C 80 % 1014,9 hPa 0,0 l/m 2,5 km/h (1 Bft) S 180 15,9 C 19,4 C
16.06.2012 10:11 19,4 C 80 % 1015,2 hPa 0,0 l/m 2,9 km/h (1 Bft) SW 225 15,9 C 19,4 C
16.06.2012 10:16 19,4 C 80 % 1015,5 hPa 0,0 l/m 2,5 km/h (1 Bft) S-SO 157 15,9 C 19,4 C
16.06.2012 10:21 19,4 C 80 % 1015,4 hPa 0,0 l/m 2,2 km/h (1 Bft) S-SO 157 15,9 C 19,4 C
16.06.2012 10:26 19,6 C 81 % 1015,5 hPa 0,0 l/m 5,8 km/h (2 Bft) S 180 16,2 C 19,6 C
16.06.2012 10:31 19,8 C 81 % 1015,6 hPa 0,0 l/m 4,0 km/h (1 Bft) S-SW 202 16,4 C 19,8 C
16.06.2012 10:36 19,9 C 81 % 1015,7 hPa 0,0 l/m 2,2 km/h (1 Bft) S-SO 157 16,5 C 19,9 C
16.06.2012 10:41 19,9 C 81 % 1015,7 hPa 0,0 l/m 2,5 km/h (1 Bft) S-SO 157 16,5 C 19,9 C
16.06.2012 10:46 20,1 C 81 % 1015,7 hPa 0,0 l/m 8,3 km/h (2 Bft) SW 225 16,7 C 20,1 C
16.06.2012 10:51 20,3 C 79 % 1015,7 hPa 0,0 l/m 6,1 km/h (2 Bft) S 180 16,5 C 20,3 C
16.06.2012 10:56 20,2 C 79 % 1015,6 hPa 0,0 l/m 2,5 km/h (1 Bft) S-SO 157 16,4 C 20,2 C
16.06.2012 11:01 20,1 C 79 % 1015,8 hPa 0,5 l/m 4,0 km/h (1 Bft) S-SW 202 16,3 C 20,1 C
16.06.2012 11:06 19,9 C 80 % 1015,6 hPa 0,0 l/m 3,6 km/h (1 Bft) S 180 16,3 C 19,9 C
16.06.2012 11:11 19,9 C 80 % 1015,6 hPa 0,0 l/m 7,6 km/h (2 Bft) S-SW 202 16,3 C 19,9 C
16.06.2012 11:16 19,9 C 80 % 1015,0 hPa 0,0 l/m 7,6 km/h (2 Bft) S-SO 157 16,3 C 19,9 C
16.06.2012 11:21 19,9 C 81 % 1014,9 hPa 0,0 l/m 12,2 km/h (2 Bft) SO 135 16,5 C 19,9 C
16.06.2012 11:26 19,9 C 81 % 1015,3 hPa 0,0 l/m 2,5 km/h (1 Bft) S-SO 157 16,5 C 19,9 C
16.06.2012 11:31 19,9 C 81 % 1015,0 hPa 0,0 l/m 9,0 km/h (2 Bft) S-SO 157 16,5 C 19,9 C
16.06.2012 11:36 19,9 C 81 % 1015,1 hPa 0,0 l/m 5,0 km/h (1 Bft) S 180 16,5 C 19,9 C
16.06.2012 11:41 19,9 C 81 % 1015,1 hPa 0,0 l/m 11,9 km/h (2 Bft) S-SW 202 16,5 C 19,9 C
16.06.2012 11:46 19,9 C 79 % 1015,1 hPa 0,0 l/m 8,3 km/h (2 Bft) SO 135 16,1 C 19,9 C
16.06.2012 11:51 19,9 C 79 % 1015,0 hPa 0,0 l/m 5,8 km/h (2 Bft) S-SW 202 16,1 C 19,9 C
16.06.2012 11:56 20,1 C 79 % 1015,1 hPa 0,0 l/m 9,7 km/h (2 Bft) S-SO 157 16,3 C 20,1 C
16.06.2012 12:01 20,3 C 79 % 1015,2 hPa 0,0 l/m 14,8 km/h (3 Bft) S 180 16,5 C 20,3 C
16.06.2012 12:06 20,5 C 79 % 1015,1 hPa 0,0 l/m 14,4 km/h (3 Bft) S-SO 157 16,7 C 20,5 C
16.06.2012 12:11 20,7 C 78 % 1015,1 hPa 0,0 l/m 4,7 km/h (1 Bft) SO 135 16,7 C 20,7 C
16.06.2012 12:16 20,9 C 77 % 1015,1 hPa 0,0 l/m 21,6 km/h (4 Bft) S-SO 157 16,7 C 20,9 C
16.06.2012 12:21 21,1 C 76 % 1015,0 hPa 0,0 l/m 4,3 km/h (1 Bft) S-SW 202 16,7 C 21,1 C
16.06.2012 12:26 21,3 C 76 % 1015,0 hPa 0,0 l/m 2,2 km/h (1 Bft) SW 225 16,9 C 21,3 C
16.06.2012 12:31 21,5 C 75 % 1015,0 hPa 0,0 l/m 7,6 km/h (2 Bft) S-SO 157 16,9 C 21,5 C
16.06.2012 12:36 21,8 C 75 % 1014,7 hPa 0,0 l/m 9,4 km/h (2 Bft) S 180 17,2 C 21,8 C
16.06.2012 12:41 21,9 C 73 % 1014,7 hPa 0,0 l/m 14,4 km/h (3 Bft) S-SW 202 16,8 C 21,9 C
16.06.2012 12:46 21,9 C 72 % 1015,1 hPa 0,0 l/m 11,9 km/h (2 Bft) S-SO 157 16,6 C 21,9 C
16.06.2012 12:51 21,8 C 72 % 1014,8 hPa 0,0 l/m 6,8 km/h (2 Bft) S-SO 157 16,5 C 21,8 C
16.06.2012 12:56 21,8 C 72 % 1014,9 hPa 0,0 l/m 10,8 km/h (2 Bft) S 180 16,5 C 21,8 C
16.06.2012 13:01 21,6 C 72 % 1014,9 hPa 0,0 l/m 11,2 km/h (2 Bft) S-SO 157 16,3 C 21,6 C
16.06.2012 13:06 21,5 C 72 % 1014,9 hPa 0,0 l/m 10,8 km/h (2 Bft) S-SO 157 16,2 C 21,5 C
16.06.2012 13:11 21,5 C 73 % 1015,0 hPa 0,0 l/m 6,1 km/h (2 Bft) SO 135 16,4 C 21,5 C
16.06.2012 13:16 21,4 C 73 % 1015,1 hPa 0,0 l/m 11,2 km/h (2 Bft) S-SW 202 16,4 C 21,4 C
16.06.2012 13:21 21,4 C 73 % 1014,8 hPa 0,0 l/m 8,3 km/h (2 Bft) SW 225 16,4 C 21,4 C
16.06.2012 13:26 21,4 C 73 % 1014,9 hPa 0,0 l/m 19,1 km/h (3 Bft) S-SW 202 16,4 C 21,4 C
16.06.2012 13:31 21,5 C 73 % 1015,0 hPa 0,0 l/m 9,0 km/h (2 Bft) W 270 16,4 C 21,5 C
16.06.2012 13:36 21,6 C 73 % 1015,0 hPa 0,0 l/m 6,1 km/h (2 Bft) S-SO 157 16,5 C 21,6 C
16.06.2012 13:41 21,6 C 73 % 1015,0 hPa 0,0 l/m 1,1 km/h (1 Bft) SW 225 16,5 C 21,6 C
16.06.2012 13:46 21,6 C 73 % 1015,1 hPa 0,0 l/m 17,3 km/h (3 Bft) S-SW 202 16,5 C 21,6 C
16.06.2012 13:51 21,6 C 72 % 1015,4 hPa 0,0 l/m 19,1 km/h (3 Bft) S-SW 202 16,3 C 21,6 C
16.06.2012 13:56 21,5 C 72 % 1015,3 hPa 0,0 l/m 9,7 km/h (2 Bft) SW 225 16,2 C 21,5 C
16.06.2012 14:01 21,4 C 71 % 1015,2 hPa 0,0 l/m 8,6 km/h (2 Bft) W 270 15,9 C 21,4 C
16.06.2012 14:06 21,3 C 72 % 1015,1 hPa 0,0 l/m 19,1 km/h (3 Bft) SW 225 16,0 C 21,3 C
16.06.2012 14:11 21,3 C 71 % 1015,1 hPa 0,0 l/m 7,6 km/h (2 Bft) W-SW 247 15,8 C 21,3 C
16.06.2012 14:16 21,3 C 71 % 1014,9 hPa 0,0 l/m 18,4 km/h (3 Bft) SW 225 15,8 C 21,3 C
16.06.2012 14:21 21,1 C 71 % 1015,4 hPa 0,0 l/m 19,8 km/h (3 Bft) W 270 15,6 C 21,1 C
16.06.2012 14:26 20,9 C 72 % 1015,4 hPa 0,0 l/m 26,6 km/h (4 Bft) W-SW 247 15,7 C 20,9 C
16.06.2012 14:31 20,8 C 72 % 1015,4 hPa 0,0 l/m 9,4 km/h (2 Bft) S-SW 202 15,6 C 20,8 C
16.06.2012 14:36 20,5 C 73 % 1015,5 hPa 0,0 l/m 13,3 km/h (3 Bft) W-SW 247 15,5 C 20,5 C
16.06.2012 14:41 20,4 C 73 % 1015,3 hPa 0,0 l/m 5,8 km/h (2 Bft) S-SO 157 15,4 C 20,4 C
16.06.2012 14:46 20,3 C 74 % 1015,6 hPa 0,0 l/m 9,7 km/h (2 Bft) W 270 15,5 C 20,3 C
16.06.2012 14:51 20,2 C 75 % 1015,5 hPa 0,0 l/m 3,2 km/h (1 Bft) S-SO 157 15,6 C 20,2 C
16.06.2012 14:56 20,2 C 75 % 1015,3 hPa 0,0 l/m 3,2 km/h (1 Bft) SO 135 15,6 C 20,2 C
16.06.2012 15:01 20,3 C 74 % 1015,3 hPa 0,0 l/m 14,0 km/h (3 Bft) W-SW 247 15,5 C 20,3 C
16.06.2012 15:06 20,3 C 74 % 1015,6 hPa 0,0 l/m 5,0 km/h (1 Bft) S-SW 202 15,5 C 20,3 C
16.06.2012 15:11 20,4 C 74 % 1015,5 hPa 0,0 l/m 13,0 km/h (3 Bft) S-SO 157 15,6 C 20,4 C
16.06.2012 15:16 20,4 C 74 % 1015,5 hPa 0,0 l/m 6,8 km/h (2 Bft) W 270 15,6 C 20,4 C
16.06.2012 15:21 20,5 C 75 % 1015,6 hPa 0,0 l/m 8,3 km/h (2 Bft) W-SW 247 15,9 C 20,5 C
16.06.2012 15:26 20,5 C 75 % 1015,5 hPa 0,0 l/m 16,2 km/h (3 Bft) SW 225 15,9 C 20,5 C
16.06.2012 15:31 20,4 C 75 % 1015,6 hPa 0,0 l/m 2,2 km/h (1 Bft) S 180 15,8 C 20,4 C
16.06.2012 15:36 20,4 C 76 % 1015,4 hPa 0,5 l/m 9,0 km/h (2 Bft) W-SW 247 16,0 C 20,4 C
16.06.2012 15:41 20,4 C 76 % 1015,5 hPa 0,0 l/m 14,8 km/h (3 Bft) S-SW 202 16,0 C 20,4 C
16.06.2012 15:46 20,2 C 76 % 1015,4 hPa 0,0 l/m 9,7 km/h (2 Bft) S 180 15,8 C 20,2 C
16.06.2012 15:51 20,1 C 76 % 1015,4 hPa 0,0 l/m 13,7 km/h (3 Bft) S-SW 202 15,7 C 20,1 C
16.06.2012 15:56 19,9 C 76 % 1015,5 hPa 0,0 l/m 5,0 km/h (1 Bft) W-SW 247 15,5 C 19,9 C
16.06.2012 16:01 19,8 C 77 % 1015,6 hPa 0,0 l/m 5,0 km/h (1 Bft) S-SO 157 15,6 C 19,8 C
16.06.2012 16:06 19,6 C 78 % 1015,7 hPa 0,0 l/m 7,9 km/h (2 Bft) S-SO 157 15,7 C 19,6 C
16.06.2012 16:11 19,5 C 78 % 1015,8 hPa 0,0 l/m 11,5 km/h (2 Bft) W-SW 247 15,6 C 19,5 C
16.06.2012 16:16 19,4 C 78 % 1015,9 hPa 0,5 l/m 11,9 km/h (2 Bft) SW 225 15,5 C 19,4 C
16.06.2012 16:21 19,2 C 78 % 1016,0 hPa 0,0 l/m 12,2 km/h (2 Bft) SW 225 15,3 C 19,2 C
16.06.2012 16:26 18,9 C 78 % 1015,9 hPa 0,0 l/m 13,7 km/h (3 Bft) S-SW 202 15,0 C 18,9 C
16.06.2012 16:31 18,9 C 78 % 1015,9 hPa 0,0 l/m 10,8 km/h (2 Bft) S-SW 202 15,0 C 18,9 C
16.06.2012 16:36 18,8 C 78 % 1015,9 hPa 0,0 l/m 6,1 km/h (2 Bft) W-SW 247 14,9 C 18,8 C
16.06.2012 16:41 18,8 C 78 % 1016,0 hPa 0,0 l/m 4,7 km/h (1 Bft) W-SW 247 14,9 C 18,8 C
16.06.2012 16:46 18,7 C 78 % 1015,9 hPa 0,0 l/m 9,7 km/h (2 Bft) S-SW 202 14,8 C 18,7 C
16.06.2012 16:51 18,6 C 78 % 1015,9 hPa 0,0 l/m 8,3 km/h (2 Bft) W-SW 247 14,7 C 18,6 C
16.06.2012 16:56 18,6 C 78 % 1015,7 hPa 0,0 l/m 10,1 km/h (2 Bft) SW 225 14,7 C 18,6 C
16.06.2012 17:01 18,6 C 78 % 1015,8 hPa 0,0 l/m 14,4 km/h (3 Bft) W-SW 247 14,7 C 18,6 C
16.06.2012 17:06 18,5 C 78 % 1015,7 hPa 0,0 l/m 5,4 km/h (1 Bft) S-SO 157 14,6 C 18,5 C
16.06.2012 17:11 18,5 C 79 % 1015,6 hPa 0,0 l/m 12,6 km/h (3 Bft) SW 225 14,8 C 18,5 C
16.06.2012 17:16 18,5 C 79 % 1015,6 hPa 0,0 l/m 7,2 km/h (2 Bft) S-SW 202 14,8 C 18,5 C
16.06.2012 17:21 18,4 C 78 % 1015,9 hPa 0,0 l/m 6,1 km/h (2 Bft) SW 225 14,5 C 18,4 C
16.06.2012 17:26 18,4 C 78 % 1015,5 hPa 0,0 l/m 4,7 km/h (1 Bft) W-SW 247 14,5 C 18,4 C
16.06.2012 17:31 18,4 C 78 % 1015,6 hPa 0,0 l/m 10,4 km/h (2 Bft) SW 225 14,5 C 18,4 C
16.06.2012 17:36 18,4 C 78 % 1015,6 hPa 0,0 l/m 7,2 km/h (2 Bft) S-SW 202 14,5 C 18,4 C
16.06.2012 17:41 18,4 C 78 % 1015,6 hPa 0,0 l/m 4,7 km/h (1 Bft) S 180 14,5 C 18,4 C
16.06.2012 17:46 18,4 C 78 % 1015,4 hPa 0,0 l/m 5,4 km/h (1 Bft) S-SO 157 14,5 C 18,4 C
16.06.2012 17:51 18,3 C 78 % 1015,6 hPa 0,0 l/m 17,3 km/h (3 Bft) W-SW 247 14,4 C 18,3 C
16.06.2012 17:56 18,3 C 78 % 1015,8 hPa 0,0 l/m 4,0 km/h (1 Bft) SW 225 14,4 C 18,3 C
16.06.2012 18:01 18,3 C 78 % 1015,6 hPa 0,0 l/m 4,7 km/h (1 Bft) W 270 14,4 C 18,3 C
16.06.2012 18:06 18,2 C 78 % 1015,8 hPa 0,0 l/m 4,0 km/h (1 Bft) W-SW 247 14,3 C 18,2 C
16.06.2012 18:11 18,2 C 78 % 1015,8 hPa 0,0 l/m 2,9 km/h (1 Bft) W-SW 247 14,3 C 18,2 C
16.06.2012 18:16 18,2 C 79 % 1016,1 hPa 0,0 l/m 4,3 km/h (1 Bft) W 270 14,5 C 18,2 C
16.06.2012 18:21 18,1 C 79 % 1016,0 hPa 0,0 l/m 16,6 km/h (3 Bft) W-SW 247 14,4 C 18,1 C
16.06.2012 18:26 18,1 C 79 % 1016,1 hPa 0,0 l/m 3,6 km/h (1 Bft) W-SW 247 14,4 C 18,1 C
16.06.2012 18:31 18,1 C 79 % 1015,8 hPa 0,0 l/m 3,6 km/h (1 Bft) W 270 14,4 C 18,1 C
16.06.2012 18:36 18,1 C 79 % 1015,6 hPa 0,0 l/m 9,0 km/h (2 Bft) W-SW 247 14,4 C 18,1 C
16.06.2012 18:41 18,0 C 79 % 1015,6 hPa 0,0 l/m 10,8 km/h (2 Bft) W 270 14,3 C 18,0 C
16.06.2012 18:46 18,1 C 79 % 1015,6 hPa 0,0 l/m 7,2 km/h (2 Bft) W 270 14,4 C 18,1 C
16.06.2012 18:51 18,1 C 79 % 1015,3 hPa 0,0 l/m 8,3 km/h (2 Bft) W-SW 247 14,4 C 18,1 C
16.06.2012 18:56 18,0 C 79 % 1015,3 hPa 0,0 l/m 8,3 km/h (2 Bft) W-SW 247 14,3 C 18,0 C
16.06.2012 19:01 17,9 C 79 % 1015,4 hPa 0,0 l/m 3,2 km/h (1 Bft) W-SW 247 14,2 C 17,9 C
16.06.2012 19:06 17,9 C 79 % 1015,4 hPa 0,0 l/m 10,1 km/h (2 Bft) SW 225 14,2 C 17,9 C
16.06.2012 19:11 17,9 C 79 % 1015,4 hPa 0,0 l/m 4,7 km/h (1 Bft) SW 225 14,2 C 17,9 C
16.06.2012 19:16 17,9 C 79 % 1015,6 hPa 0,0 l/m 3,2 km/h (1 Bft) S-SW 202 14,2 C 17,9 C
16.06.2012 19:21 17,9 C 79 % 1015,4 hPa 0,0 l/m 3,2 km/h (1 Bft) W-SW 247 14,2 C 17,9 C
16.06.2012 19:26 17,9 C 79 % 1015,4 hPa 0,0 l/m 5,0 km/h (1 Bft) S-SW 202 14,2 C 17,9 C
16.06.2012 19:31 17,9 C 79 % 1015,2 hPa 0,0 l/m 3,6 km/h (1 Bft) S 180 14,2 C 17,9 C
16.06.2012 19:36 17,9 C 79 % 1015,2 hPa 0,0 l/m 4,0 km/h (1 Bft) SW 225 14,2 C 17,9 C
16.06.2012 19:41 17,9 C 79 % 1015,3 hPa 0,0 l/m 3,6 km/h (1 Bft) W-SW 247 14,2 C 17,9 C
16.06.2012 19:46 17,9 C 79 % 1015,3 hPa 0,0 l/m 6,1 km/h (2 Bft) S-SW 202 14,2 C 17,9 C
16.06.2012 19:51 17,9 C 79 % 1015,3 hPa 0,0 l/m 2,9 km/h (1 Bft) W-SW 247 14,2 C 17,9 C
16.06.2012 19:56 17,9 C 79 % 1015,3 hPa 0,0 l/m 5,4 km/h (1 Bft) W-SW 247 14,2 C 17,9 C
16.06.2012 20:01 17,9 C 79 % 1015,4 hPa 0,0 l/m 4,7 km/h (1 Bft) W-SW 247 14,2 C 17,9 C
16.06.2012 20:06 17,9 C 79 % 1015,6 hPa 0,0 l/m 7,6 km/h (2 Bft) SW 225 14,2 C 17,9 C
16.06.2012 20:11 17,9 C 79 % 1015,6 hPa 0,0 l/m 3,6 km/h (1 Bft) SW 225 14,2 C 17,9 C
16.06.2012 20:16 17,8 C 79 % 1015,4 hPa 0,0 l/m 4,3 km/h (1 Bft) SW 225 14,1 C 17,8 C
16.06.2012 20:21 17,8 C 79 % 1015,6 hPa 0,0 l/m 4,0 km/h (1 Bft) S-SW 202 14,1 C 17,8 C
16.06.2012 20:26 17,8 C 79 % 1015,5 hPa 0,0 l/m 4,0 km/h (1 Bft) S 180 14,1 C 17,8 C
16.06.2012 20:31 17,8 C 79 % 1015,6 hPa 0,0 l/m 5,0 km/h (1 Bft) S-SW 202 14,1 C 17,8 C
16.06.2012 20:36 17,8 C 79 % 1015,7 hPa 0,0 l/m 2,5 km/h (1 Bft) S-SO 157 14,1 C 17,8 C
16.06.2012 20:41 17,8 C 79 % 1015,8 hPa 0,0 l/m 3,6 km/h (1 Bft) S-SO 157 14,1 C 17,8 C
16.06.2012 20:46 17,8 C 79 % 1015,7 hPa 0,0 l/m 0,0 km/h (0 Bft) S-SW 202 14,1 C 17,8 C
16.06.2012 20:51 17,8 C 79 % 1015,6 hPa 0,0 l/m 3,2 km/h (1 Bft) S-SW 202 14,1 C 17,8 C
16.06.2012 20:56 17,8 C 79 % 1015,6 hPa 0,0 l/m 0,0 km/h (0 Bft) S 180 14,1 C 17,8 C
16.06.2012 21:01 17,7 C 79 % 1015,6 hPa 0,0 l/m 2,2 km/h (1 Bft) W-SW 247 14,0 C 17,7 C
16.06.2012 21:06 17,6 C 79 % 1015,8 hPa 0,0 l/m 4,0 km/h (1 Bft) W-SW 247 13,9 C 17,6 C
16.06.2012 21:11 17,6 C 79 % 1015,9 hPa 0,0 l/m 5,4 km/h (1 Bft) W-SW 247 13,9 C 17,6 C
16.06.2012 21:16 17,6 C 79 % 1015,8 hPa 0,0 l/m 9,7 km/h (2 Bft) W-SW 247 13,9 C 17,6 C
16.06.2012 21:21 17,6 C 79 % 1016,0 hPa 0,0 l/m 9,0 km/h (2 Bft) W 270 13,9 C 17,6 C
16.06.2012 21:26 17,6 C 78 % 1015,9 hPa 0,0 l/m 7,9 km/h (2 Bft) W-SW 247 13,7 C 17,6 C
16.06.2012 21:31 17,5 C 78 % 1015,7 hPa 0,0 l/m 7,9 km/h (2 Bft) S-SW 202 13,6 C 17,5 C
16.06.2012 21:36 17,5 C 78 % 1015,7 hPa 0,0 l/m 7,2 km/h (2 Bft) W-SW 247 13,6 C 17,5 C
16.06.2012 21:41 17,5 C 78 % 1016,0 hPa 0,0 l/m 9,7 km/h (2 Bft) W-SW 247 13,6 C 17,5 C
16.06.2012 21:46 17,5 C 78 % 1015,8 hPa 0,0 l/m 5,4 km/h (1 Bft) S-SW 202 13,6 C 17,5 C
16.06.2012 21:51 17,5 C 78 % 1016,1 hPa 0,0 l/m 4,3 km/h (1 Bft) W-SW 247 13,6 C 17,5 C
16.06.2012 21:56 17,5 C 78 % 1016,4 hPa 0,0 l/m 10,1 km/h (2 Bft) W-SW 247 13,6 C 17,5 C
16.06.2012 22:01 17,4 C 78 % 1016,4 hPa 0,0 l/m 14,4 km/h (3 Bft) SW 225 13,5 C 17,4 C
16.06.2012 22:06 17,4 C 79 % 1016,3 hPa 0,0 l/m 7,9 km/h (2 Bft) W-SW 247 13,7 C 17,4 C
16.06.2012 22:11 17,3 C 79 % 1016,3 hPa 0,0 l/m 3,6 km/h (1 Bft) W-SW 247 13,6 C 17,3 C
16.06.2012 22:16 17,2 C 79 % 1016,3 hPa 0,0 l/m 14,8 km/h (3 Bft) W-SW 247 13,5 C 17,2 C
16.06.2012 22:21 17,1 C 79 % 1016,5 hPa 0,0 l/m 10,8 km/h (2 Bft) W-SW 247 13,4 C 17,1 C
16.06.2012 22:26 17,1 C 79 % 1016,5 hPa 0,0 l/m 6,1 km/h (2 Bft) W-SW 247 13,4 C 17,1 C
16.06.2012 22:31 16,9 C 80 % 1016,3 hPa 0,5 l/m 8,6 km/h (2 Bft) S-SW 202 13,4 C 16,9 C
16.06.2012 22:36 16,9 C 80 % 1016,0 hPa 0,0 l/m 4,7 km/h (1 Bft) W-SW 247 13,4 C 16,9 C
16.06.2012 22:41 16,9 C 80 % 1016,0 hPa 0,0 l/m 7,6 km/h (2 Bft) W 270 13,4 C 16,9 C
16.06.2012 22:46 16,8 C 80 % 1016,0 hPa 0,0 l/m 6,8 km/h (2 Bft) SW 225 13,3 C 16,8 C
16.06.2012 22:51 16,8 C 79 % 1016,2 hPa 0,0 l/m 14,4 km/h (3 Bft) S-SW 202 13,1 C 16,8 C
16.06.2012 22:56 16,7 C 79 % 1016,5 hPa 0,0 l/m 18,4 km/h (3 Bft) S-SW 202 13,0 C 16,7 C
16.06.2012 23:01 16,6 C 79 % 1016,9 hPa 0,0 l/m 10,4 km/h (2 Bft) SO 135 12,9 C 16,6 C
16.06.2012 23:06 16,6 C 79 % 1016,7 hPa 0,0 l/m 11,9 km/h (2 Bft) W-SW 247 12,9 C 16,6 C
16.06.2012 23:11 16,6 C 79 % 1016,7 hPa 0,0 l/m 11,2 km/h (2 Bft) S-SW 202 12,9 C 16,6 C
16.06.2012 23:16 16,5 C 79 % 1016,5 hPa 0,0 l/m 14,8 km/h (3 Bft) SW 225 12,8 C 16,5 C
16.06.2012 23:21 16,4 C 79 % 1016,1 hPa 0,0 l/m 13,0 km/h (3 Bft) S 180 12,7 C 16,4 C
16.06.2012 23:26 16,3 C 79 % 1015,9 hPa 0,0 l/m 4,0 km/h (1 Bft) S 180 12,6 C 16,3 C
16.06.2012 23:31 16,3 C 80 % 1015,6 hPa 0,0 l/m 5,0 km/h (1 Bft) S-SO 157 12,8 C 16,3 C
16.06.2012 23:36 16,2 C 80 % 1015,3 hPa 0,0 l/m 4,0 km/h (1 Bft) S-SO 157 12,7 C 16,2 C
16.06.2012 23:41 16,1 C 80 % 1015,3 hPa 0,0 l/m 7,6 km/h (2 Bft) S-SO 157 12,6 C 16,1 C
16.06.2012 23:46 16,1 C 81 % 1015,1 hPa 0,0 l/m 5,8 km/h (2 Bft) SO 135 12,8 C 16,1 C
16.06.2012 23:51 16,1 C 81 % 1015,2 hPa 0,0 l/m 2,9 km/h (1 Bft) S-SO 157 12,8 C 16,1 C
16.06.2012 23:56 15,9 C 81 % 1015,5 hPa 0,0 l/m 4,7 km/h (1 Bft) S-SO 157 12,6 C 15,9 C
_ Min-Zeit 23:56 00:01 12:36 - 00:06 - - 00:06 23:56
Minimum _ 15,9 C 71 % 1014,7 hPa - 0,0 km/h (0 Bft) - - 12,1 C 15,9 C
_ Max-Zeit 12:41 08:06 23:01 07:36 14:26 - - 12:36 12:41
Maximum _ 21,9 C 84 % 1016,9 hPa 0,5 l/m 26,6 km/h
W-SW (4 Bft)
- - 17,2 C 21,9 C
Durchschnitt _ 18,3 C 78 % 1015,6 hPa #2,6 l/m 5,6 km/h (1 Bft) S-SO - 14,4 C 18,3 C
(c) by David Heller